Volver al catálogo

STTW-5

ActivoCienciaHEO
NORAD 21833·PAYLOAD·🇨🇳 China

Lanzado Dec 28, 1991 desde Xichang Satellite Launch Center

Loading…

Próximos Pases (próximas 24 horas)

TLE

ActualizadoSource: Space-Track

Época: Sep 13, 2026, 22:44 UTC

1 21833U 91088A   26256.94755271 -.00000127  00000-0  00000-0 0  9995
2 21833  32.1700  44.8689 6551538 241.0613  39.3195  2.27643924361268

Sigue STTW-5 en tiempo real con AllMySat

Download on the App Store